TimeEDT,TemperatureF,Dew PointF,Humidity,Sea Level PressureIn,VisibilityMPH,Wind Direction,Wind SpeedMPH,Gust SpeedMPH,PrecipitationIn,Events,Conditions,WindDirDegrees,DateUTC
12:15 AM,46.4,42.8,87,30.01,10.0,SSE,3.5,-,N/A,,Overcast,160,2012-10-21 04:15:00
12:35 AM,46.4,42.8,87,30.02,10.0,Calm,Calm,-,N/A,,Overcast,0,2012-10-21 04:35:00
12:55 AM,46.4,42.8,87,30.02,10.0,SE,3.5,-,N/A,,Overcast,140,2012-10-21 04:55:00
1:15 AM,46.4,42.8,87,30.02,10.0,Calm,Calm,-,N/A,,Overcast,0,2012-10-21 05:15:00
1:35 AM,46.4,42.8,87,30.03,10.0,SSE,4.6,-,N/A,,Overcast,160,2012-10-21 05:35:00
1:55 AM,48.2,42.8,82,30.03,10.0,SSE,4.6,-,N/A,,Overcast,150,2012-10-21 05:55:00
2:15 AM,48.2,42.8,82,30.04,10.0,SSE,3.5,-,N/A,,Overcast,150,2012-10-21 06:15:00
2:35 AM,46.4,42.8,87,30.04,10.0,Calm,Calm,-,N/A,,Overcast,0,2012-10-21 06:35:00
2:55 AM,46.4,42.8,87,30.05,10.0,SSE,3.5,-,N/A,,Overcast,150,2012-10-21 06:55:00
3:15 AM,46.4,42.8,87,30.05,10.0,SE,4.6,-,N/A,,Overcast,130,2012-10-21 07:15:00
3:35 AM,46.4,42.8,87,30.05,10.0,SE,4.6,-,N/A,,Overcast,140,2012-10-21 07:35:00
3:55 AM,46.4,41.0,81,30.05,10.0,South,4.6,-,N/A,,Scattered Clouds,170,2012-10-21 07:55:00
4:15 AM,46.4,41.0,81,30.06,10.0,South,3.5,-,N/A,,Clear,170,2012-10-21 08:15:00
4:35 AM,44.6,41.0,87,30.07,10.0,Calm,Calm,-,N/A,,Scattered Clouds,0,2012-10-21 08:35:00
4:55 AM,44.6,41.0,87,30.07,10.0,Calm,Calm,-,N/A,,Mostly Cloudy,0,2012-10-21 08:55:00
5:15 AM,44.6,41.0,87,30.08,10.0,Calm,Calm,-,N/A,,Overcast,0,2012-10-21 09:15:00
5:35 AM,44.6,42.8,93,30.09,10.0,Calm,Calm,-,N/A,,Overcast,0,2012-10-21 09:35:00
6:15 AM,44.6,42.8,93,30.10,10.0,Calm,Calm,-,N/A,,Overcast,0,2012-10-21 10:15:00
6:35 AM,44.6,42.8,93,30.11,10.0,Calm,Calm,-,N/A,,Overcast,0,2012-10-21 10:35:00
6:55 AM,46.4,42.8,87,30.11,10.0,SSE,3.5,-,N/A,,Overcast,160,2012-10-21 10:55:00
7:35 AM,46.4,42.8,87,30.12,10.0,Calm,Calm,-,N/A,,Overcast,0,2012-10-21 11:35:00
7:55 AM,46.4,42.8,87,30.12,10.0,Calm,Calm,-,N/A,,Overcast,0,2012-10-21 11:55:00
8:15 AM,46.4,42.8,87,30.12,10.0,SE,3.5,-,N/A,,Overcast,130,2012-10-21 12:15:00
8:55 AM,50.0,42.8,76,30.13,10.0,SSE,4.6,-,N/A,,Clear,160,2012-10-21 12:55:00
9:15 AM,50.0,42.8,76,30.13,10.0,SSE,5.8,-,N/A,,Clear,150,2012-10-21 13:15:00
9:55 AM,53.6,44.6,72,30.14,10.0,SSE,6.9,-,N/A,,Clear,150,2012-10-21 13:55:00
10:15 AM,55.4,44.6,67,30.15,10.0,South,5.8,-,N/A,,Clear,180,2012-10-21 14:15:00
10:35 AM,57.2,44.6,63,30.15,10.0,SSE,8.1,-,N/A,,Clear,160,2012-10-21 14:35:00
10:55 AM,57.2,44.6,63,30.15,10.0,South,6.9,-,N/A,,Clear,180,2012-10-21 14:55:00
11:15 AM,59.0,44.6,59,30.16,10.0,South,6.9,-,N/A,,Clear,170,2012-10-21 15:15:00
11:35 AM,59.0,44.6,59,30.16,10.0,SSE,6.9,-,N/A,,Clear,160,2012-10-21 15:35:00
11:55 AM,60.8,44.6,55,30.15,10.0,SSE,5.8,-,N/A,,Clear,160,2012-10-21 15:55:00
12:15 PM,60.8,44.6,55,30.15,10.0,SSE,4.6,-,N/A,,Clear,160,2012-10-21 16:15:00
12:35 PM,62.6,44.6,52,30.15,10.0,SW,3.5,-,N/A,,Clear,220,2012-10-21 16:35:00
12:55 PM,62.6,44.6,52,30.14,10.0,SSE,5.8,-,N/A,,Clear,160,2012-10-21 16:55:00
1:15 PM,64.4,44.6,49,30.14,10.0,SSE,5.8,-,N/A,,Clear,150,2012-10-21 17:15:00
1:35 PM,64.4,44.6,49,30.13,10.0,SE,3.5,-,N/A,,Clear,140,2012-10-21 17:35:00
1:55 PM,64.4,44.6,49,30.13,10.0,SSE,3.5,-,N/A,,Clear,160,2012-10-21 17:55:00
2:15 PM,66.2,44.6,46,30.12,10.0,SSW,4.6,-,N/A,,Clear,210,2012-10-21 18:15:00
2:35 PM,66.2,44.6,46,30.12,10.0,West,4.6,-,N/A,,Clear,260,2012-10-21 18:35:00
2:55 PM,68.0,44.6,43,30.11,10.0,SSE,5.8,-,N/A,,Clear,150,2012-10-21 18:55:00
3:15 PM,68.0,44.6,43,30.11,7.0,SE,4.6,-,N/A,,Clear,140,2012-10-21 19:15:00
3:35 PM,68.0,44.6,43,30.11,10.0,Calm,Calm,-,N/A,,Clear,0,2012-10-21 19:35:00
3:55 PM,68.0,42.8,40,30.10,10.0,SW,5.8,-,N/A,,Clear,230,2012-10-21 19:55:00
4:15 PM,68.0,42.8,40,30.10,10.0,SW,5.8,-,N/A,,Clear,230,2012-10-21 20:15:00
4:35 PM,68.0,42.8,40,30.10,10.0,SW,3.5,-,N/A,,Clear,230,2012-10-21 20:35:00
4:55 PM,68.0,42.8,40,30.10,10.0,Calm,Calm,-,N/A,,Clear,0,2012-10-21 20:55:00
5:15 PM,68.0,42.8,40,30.10,10.0,SW,3.5,-,N/A,,Clear,230,2012-10-21 21:15:00
5:55 PM,68.0,44.6,43,30.09,10.0,South,3.5,-,N/A,,Clear,190,2012-10-21 21:55:00
6:15 PM,68.0,42.8,40,30.10,10.0,SW,3.5,-,N/A,,Clear,220,2012-10-21 22:15:00
6:35 PM,66.2,42.8,43,30.10,7.0,Calm,Calm,-,N/A,,Clear,0,2012-10-21 22:35:00
7:15 PM,64.4,42.8,45,30.10,10.0,Calm,Calm,-,N/A,,Clear,0,2012-10-21 23:15:00
7:35 PM,60.8,42.8,52,30.10,10.0,East,3.5,-,N/A,,Clear,100,2012-10-21 23:35:00
7:55 PM,59.0,44.6,59,30.10,10.0,SE,3.5,-,N/A,,Clear,140,2012-10-21 23:55:00
8:15 PM,60.8,44.6,55,30.11,10.0,SE,4.6,-,N/A,,Clear,140,2012-10-22 00:15:00
8:35 PM,59.0,44.6,59,30.11,10.0,SSE,4.6,-,N/A,,Clear,150,2012-10-22 00:35:00
8:55 PM,59.0,44.6,59,30.11,10.0,SSE,4.6,-,N/A,,Clear,150,2012-10-22 00:55:00
9:15 PM,57.2,44.6,63,30.11,10.0,SSE,5.8,-,N/A,,Clear,160,2012-10-22 01:15:00
9:35 PM,60.8,44.6,55,30.11,10.0,SSE,4.6,-,N/A,,Clear,160,2012-10-22 01:35:00
9:55 PM,59.0,44.6,59,30.11,10.0,South,3.5,-,N/A,,Clear,170,2012-10-22 01:55:00
10:15 PM,57.2,44.6,63,30.12,10.0,Calm,Calm,-,N/A,,Clear,0,2012-10-22 02:15:00
11:15 PM,57.2,42.8,59,30.12,10.0,South,4.6,-,N/A,,Clear,170,2012-10-22 03:15:00
11:35 PM,59.0,42.8,55,30.12,10.0,South,5.8,-,N/A,,Clear,170,2012-10-22 03:35:00
11:55 PM,59.0,44.6,59,30.12,10.0,South,5.8,-,N/A,,Clear,170,2012-10-22 03:55:00